Tracking 35274 objects as of 11-Sep-2026
HD Live streaming from Space Station
objects crossing your sky now

HULIANWANG DIGUI-109

Track HULIANWANG DIGUI-109 now!
10-day predictions


NORAD ID: 66919
Int'l Code: 2025-286E
Launch date: December 6, 2025
Source: People's Republic of China (PRC)
Launch site: Wenchang Satellite Launch Center (WSC)
Your satellite tracking list
Your tracking list is empty




NASA's NSSDC Master Catalog

Two Line Element Set (TLE):
1 66919U 25285E   26254.22326168 -.00000110  00000-0  30651-4 0  9994
2 66919  50.0064 197.4154 0000308 270.6717  89.4120 13.29319576 37516
Source of the keplerian elements: AFSPC